Location: Bernay
(48.6766°N, 2.9386°E)
Time: 08:45:05
(UTC+00:00)

COSMOS 2455 - Pass Details

Date: 12 January 2026
Orbit: 899 x 909 km, 67.1° (Epoch: 14 February)

Event Time Altitude Azimuth Distance (km) Brightness Sun altitude
Rises 19:28:30 0° 326° (NW) 3,549 6.4 -31.0°
Reaches altitude 10° 19:31:08 10° 332° (NNW) 2,604 5.5 -31.4°
Enters shadow 19:34:13 29° 350° (N) 1,617 4.2 -32.0°
